Location: Kra?nica
(53.4833°N, 14.6167°E)
Time: 20:19:35
(UTC+00:00)

Meteor 1-28 Rocket - Pass Details

Date: 23 May 2024
Orbit: 474 x 489 km, 97.5° (Epoch: 20 June)

Event Time Altitude Azimuth Distance (km) Brightness Sun altitude
Exits shadow 02:01:08 - 188° (S) 2,224 5.9 -6.1°
Reaches altitude 10° 02:02:33 10° 195° (SSW) 1,658 5.2 -5.9°
Maximum altitude 02:05:51 35° 263° (W) 795 3.8 -5.6°
Drops below altitude 10° 02:09:09 10° 330° (NNW) 1,664 6.0 -5.2°
Sets 02:11:21 0° 340° (NNW) 2,546 7.1 -5.0°
